Flag for U.S.A. Weather past 2 weeks in Freehold, New Jersey, U.S.A.

Now
59 °F

Sunny.


Feels Like: 57 °F
Forecast: 44 / 66 °F
Wind: 10 mph from Northwest

Location: Belmar-Farmdale

Current Time: Oct 25, 2014 at 10:56:13 AM

Latest Report: Oct 25, 2014 at 10:35 AM


Visibility: 10 mi

Pressure: 29.87 "Hg

Humidity: 45%

Dew point: 37 °F

Location of FreeholdLocation

Historic Weather in Freehold — Graph

°F

Freehold temperature yesterday

Maximum temperature yesterday: 66 °F (at 3:35 PM)
Minimum temperature yesterday: 48 °F (at 4:55 AM)
Average temperature yesterday: 56 °F

Past Weeks' High & Low Weather Summary

 TemperatureHumidityPressure
High75 °F (Oct 14, 12:35 PM)88% (Oct 11, 11:35 AM)30.35 "Hg (Oct 11, 11:35 AM)
Low36 °F (Oct 20, 3:35 AM)33% (Oct 19, 3:55 PM)29.59 "Hg (Oct 18, 2:55 PM)
Average58 °F69%29.94 "Hg
* Reported Oct 10 9:15 AM — Oct 25 9:55 AM, Freehold, Weather by CustomWeather, © 2014

Note: Actual official high and low records may vary slightly from our data, if they occured in-between our weather recording intervals... More about our weather records

Advertising

Freehold weather history for previous 24 hours

 ConditionsComfort  
Time TempWeatherWind HumidityBarometerVisibility
9:55 AM
Oct 25
55 °FSunny.7 mph47%29.87 "Hg10 mi
9:35 AM54 °FSunny.8 mph47%29.88 "Hg10 mi
9:15 AM52 °FSunny.9 mph50%29.88 "Hg10 mi
8:55 AM48 °FSunny.9 mph58%29.88 "Hg10 mi
8:35 AM46 °FSunny.8 mph62%29.89 "Hg10 mi
7:55 AM43 °FClear.8 mph71%29.88 "Hg10 mi
7:35 AM43 °FClear.6 mph66%29.88 "Hg10 mi
7:15 AM45 °FClear.6 mph61%29.87 "Hg10 mi
6:55 AM45 °FClear.6 mph61%29.87 "Hg10 mi
6:35 AM46 °FClear.5 mph57%29.88 "Hg10 mi
6:15 AM45 °FClear.6 mph61%29.88 "Hg10 mi
5:55 AM45 °FClear.7 mph66%29.88 "Hg10 mi
5:35 AM46 °FClear.6 mph62%29.88 "Hg10 mi
5:15 AM46 °FClear.7 mph62%29.88 "Hg10 mi
4:55 AM46 °FClear.7 mph62%29.88 "Hg10 mi
4:35 AM48 °FClear.6 mph58%29.88 "Hg10 mi
4:15 AM48 °FClear.6 mph58%29.87 "Hg10 mi
3:55 AM48 °FClear.6 mph58%29.87 "Hg10 mi
3:35 AM50 °FClear.7 mph54%29.87 "Hg10 mi
3:15 AM52 °FClear.6 mph50%29.87 "Hg10 mi
2:55 AM50 °FClear.5 mph58%29.87 "Hg10 mi
2:35 AM52 °FClear.3 mph54%29.87 "Hg10 mi
1:55 AM54 °FClear.10 mph51%29.86 "Hg10 mi
1:35 AM52 °FClear.9 mph58%29.86 "Hg10 mi
1:15 AM52 °FClear.10 mph58%29.86 "Hg10 mi
12:55 AM54 °FClear.8 mph54%29.85 "Hg10 mi
12:35 AM55 °FClear.6 mph51%29.85 "Hg10 mi
12:15 AM52 °FClear.6 mph62%29.85 "Hg10 mi
11:55 PM
Oct 24
54 °FClear.3 mph58%29.85 "Hg10 mi
11:35 PM55 °FClear.3 mph55%29.84 "Hg10 mi
10:55 PM55 °FClear.8 mph55%29.84 "Hg10 mi
10:35 PM55 °FClear.9 mph55%29.84 "Hg10 mi
10:15 PM55 °FClear.10 mph59%29.84 "Hg10 mi
9:55 PM55 °FClear.12 mph63%29.84 "Hg10 mi
9:35 PM54 °FClear.8 mph67%29.83 "Hg10 mi
9:15 PM54 °FClear.3 mph72%29.83 "Hg10 mi
8:55 PM55 °FClear.5 mph67%29.82 "Hg10 mi
8:35 PM57 °FClear.No wind63%29.82 "Hg10 mi
7:55 PM57 °FPassing clouds.No wind67%29.82 "Hg10 mi
7:35 PM57 °FPassing clouds.5 mph67%29.81 "Hg10 mi
7:15 PM57 °FPassing clouds.5 mph67%29.81 "Hg10 mi
6:55 PM57 °FPartly sunny.3 mph67%29.81 "Hg10 mi
6:35 PM61 °FPartly sunny.No wind55%29.79 "Hg10 mi
6:15 PM63 °FOvercast.No wind52%29.79 "Hg10 mi
5:55 PM64 °FOvercast.6 mph49%29.78 "Hg10 mi
5:35 PM64 °FPartly sunny.7 mph49%29.77 "Hg10 mi
5:15 PM64 °FPassing clouds.6 mph49%29.77 "Hg10 mi
4:55 PM64 °FScattered clouds.8 mph49%29.77 "Hg10 mi
4:35 PM64 °FPassing clouds.7 mph49%29.76 "Hg10 mi
4:15 PM66 °FSunny.12 mph46%29.77 "Hg10 mi
3:55 PM66 °FSunny.15 mph46%29.77 "Hg10 mi
3:35 PM66 °FSunny.15 mph46%29.76 "Hg10 mi
3:15 PM64 °FSunny.15 mph49%29.76 "Hg10 mi
2:55 PM64 °FSunny.14 mph49%29.77 "Hg10 mi
2:35 PM64 °FScattered clouds.16 mph49%29.77 "Hg10 mi
2:15 PM63 °FOvercast.9 mph52%29.78 "Hg10 mi
1:55 PM63 °FOvercast.12 mph52%29.79 "Hg10 mi
1:35 PM61 °FOvercast.14 mph55%29.80 "Hg10 mi
1:15 PM61 °FPartly sunny.17 mph52%29.80 "Hg10 mi
12:55 PM61 °FScattered clouds.21 mph52%29.81 "Hg10 mi
12:35 PM61 °FScattered clouds.21 mph52%29.81 "Hg10 mi
12:15 PM59 °FPartly sunny.17 mph55%29.82 "Hg10 mi
11:55 AM57 °FPartly sunny.21 mph59%29.82 "Hg10 mi
11:35 AM57 °FPartly sunny.23 mph59%29.82 "Hg10 mi
11:15 AM57 °FPartly sunny.18 mph59%29.83 "Hg10 mi
10:55 AM55 °FOvercast.18 mph59%29.83 "Hg10 mi
10:35 AM55 °FPartly sunny.20 mph63%29.83 "Hg10 mi
10:15 AM54 °FOvercast.18 mph63%29.83 "Hg10 mi
Weather by CustomWeather, © 2014

See weather overviewHow to use our weather pages